Terminal Aerodrome Forecast
Issued by NWS Jackson, MS

Home | Current Version | Previous Version | Text Only | Print | Product List | Glossary On
Versions: 1 2 3 4 5 6 7 8 9 10 11 12 13 14 15 16 17
000
FTUS44 KJAN 180500
TAFHBG
TAF
KHBG 180520Z 1806/1906 05003KT 5SM BR BKN250
     FM181400 07004KT P6SM FEW040 BKN250=

USA.gov is the U.S. government's official web portal to all federal, state and local government web resources and services.